Regional Weather Roundup
Issued by NWS Northern Indiana

Home | Current Version | Previous Version | Text Only | Print | Product List | Glossary Off
Versions: 1 2 3 4 5 6 7 8 9 10 11 12 13 14 15 16 17 18 19 20 21 22 23 24 25 26 27 28 29 30 31 32 33 34 35 36 37 38 39 40 41 42 43 44 45 46 47 48 49 50

534
ASUS43 KIWX 212000
RWRIWX

KIWX WEATHER ROUNDUP
NATIONAL WEATHER SERVICE NORTHERN INDIANA
300 PM EST TUE NOV 21 2017

NOTE: "FAIR" INDICATES FEW OR NO CLOUDS BELOW 12,000 FEET WITH NO
SIGNIFICANT WEATHER AND/OR OBSTRUCTIONS TO VISIBILITY.

* THESE STATIONS ARE NOT UNDER NWS QUALITY CONTROL. THEY ALSO MAY NOT
  REPORT WEATHER SUCH AS PRECIPITATION OR FOG.

INZ001>027-212100-
NORTHERN INDIANA

CITY           SKY/WX    TMP DP  RH WIND       PRES   REMARKS
MICHIGAN CITY* LGT RAIN  37  34  87 W6        29.89R
LAPORTE*       DRIZZLE   39  33  79 W9        29.88S
KNOX*          CLOUDY    41  32  70 W8        29.88R
SOUTH BEND     LGT RAIN  39  38  96 SW9       29.87R
ELKHART*       LGT RAIN  39  36  87 SW8       29.86R
GOSHEN         RAIN      41  35  79 W8G20     29.87R
MONTICELLO*    CLOUDY    45  33  64 W12       29.90R
WARSAW*        DRIZZLE   45  34  65 W13       29.87R
AUBURN*        CLOUDY    46  34  61 SW9       29.84R
FORT WAYNE     CLOUDY    48  36  63 W13       29.86R
PERU/GRISSOM   CLOUDY    48  37  65 W15       29.87R

$$
INZ028>050-212100-
CENTRAL INDIANA

CITY           SKY/WX    TMP DP  RH WIND       PRES   REMARKS
LAFAYETTE      CLOUDY    48  35  60 W12       29.92R
KOKOMO*        CLOUDY    49  36  61 W15       29.88R
MUNCIE*        CLOUDY    52  33  48 W12       29.87R
INDIANAPOLIS   CLOUDY    51  34  52 SW16      29.91R

$$
MIZ043>046-050>051-056>058-064>065-071>073-077>080-212100-
SOUTHWEST LOWER MICHIGAN

CITY           SKY/WX    TMP DP  RH WIND       PRES   REMARKS
BATTLE CREEK   LGT RAIN  39  36  89 SW15      29.81R
BENTON HARBOR  CLOUDY    43  29  57 NW10G20   29.85R
COLDWATER*     RAIN      41  37  87 W18       29.84R
HILLSDALE*     CLOUDY    45  32  61 W9G16     29.79R
HOLLAND        CLOUDY    40  28  62 NW16G26   29.82R
GRAND RAPIDS   CLOUDY    40  30  67 NW16      29.79R
KALAMAZOO      LGT RAIN  39  34  82 SW9       29.82R
STURGIS*       LGT RAIN  38  36  91 W8        29.84R
THREE RIVERS*  LGT RAIN  39  36  88 SW8       29.85R

$$
OHZ001>008-015>018-024>025-212100-
NORTHWEST OHIO

CITY           SKY/WX    TMP DP  RH WIND       PRES   REMARKS
DEFIANCE       CLOUDY    48  33  56 SW8G18    29.83R
FINDLAY        CLOUDY    51  33  50 W16G25    29.83R
TOLEDO EXPRESS CLOUDY    50  34  54 W22G28    29.80R
TOLEDO METCALF CLOUDY    50  34  54 SW18G26   29.82R
LIMA           MOSUNNY   50  35  56 SW18      29.85R

$$
AND FOR LAKE MICHIGAN COASTAL AND OPEN LAKE BUOY OBSERVATIONS

STATION/POSITION TEMP    WIND        PRES    VSBY  WAVE
                 AIR SEA DIR/SP/G                  HT/PER
                 (F)     (DEG/KT/KT) (MB)    (MI)  (FT/S)
CALUMET HARBOR    40     240/  5/ 12 1011.2R
MICHIGAN CITY     40     230/ 12/ 16   N/A
BURNS HARBOR      41     250/ 17/ 26 1012.2R
SAINT JOSEPH      44     280/ 13/ 19 1010.2
SOUTH LAKE BUOY   40 48  340/ 23/ 29 1009.4          4/ 4

$$
&&




USA.gov is the U.S. government's official web portal to all federal, state and local government web resources and services.